Total_Precipitation_Accumulation
3.84 3.90 3.93 3.86 3.54 3.83 4.27 4.56 4.14 4.47 4.48 4.04 3.74 3.66 3.75 3.88 4.00 4.26 4.27 4.48 4.36 4.41 5.02 5.34 5.01 4.63 4.33 3.91 3.41 3.16 3.09 2.85 2.53 2.13 1.85 1.83 1.79 1.72 1.68 1.66 1.62 1.50 1.40
4.44 4.37 4.18 4.09 3.69 3.62 3.96 4.16 4.14 4.65 4.48 4.19 3.56 3.41 3.49 3.83 4.12 4.21 4.30 4.80 4.75 4.55 4.70 5.27 5.63 5.54 5.15 4.75 4.24 3.93 3.73 3.46 3.17 2.65 2.18 2.03 1.94 1.86 1.82 1.87 1.97 1.82 1.54
4.89 4.69 4.45 4.02 3.76 3.75 4.01 3.99 4.03 4.19 3.97 3.83 3.56 3.61 3.65 3.84 3.99 4.19 4.39 4.73 4.62 4.27 4.26 4.63 5.41 5.88 6.05 5.85 5.45 5.22 4.71 4.01 3.55 3.03 2.55 2.24 2.07 1.95 1.89 1.94 2.03 2.03 1.85
4.57 4.67 4.35 3.84 3.84 3.77 3.87 4.09 3.95 4.03 4.00 3.96 3.92 3.68 3.70 3.79 3.54 3.72 3.94 4.08 4.33 3.94 4.07 4.32 4.76 5.32 6.18 6.95 7.20 7.05 6.35 5.09 4.08 3.57 3.17 2.70 2.35 2.10 1.94 1.96 2.08 2.02 1.77
4.25 4.52 4.26 4.01 3.86 3.80 3.72 3.49 3.99 4.14 4.17 4.16 3.82 3.76 3.40 3.15 3.02 2.93 3.08 3.08 3.45 3.69 3.97 4.06 4.49 4.92 5.88 7.16 8.13 8.46 7.92 6.53 5.40 4.63 4.05 3.45 2.98 2.52 2.14 1.98 1.91 1.79 1.63
3.88 4.14 3.85 3.77 3.86 4.04 3.91 3.96 4.32 4.33 3.99 4.09 3.61 3.49 3.33 2.91 2.82 2.78 2.64 2.67 2.76 2.85 3.43 4.07 4.77 4.46 4.89 5.95 7.17 8.15 8.71 8.06 6.67 5.55 4.72 4.11 3.63 3.13 2.57 2.27 2.13 1.98 1.87
3.55 3.95 3.60 3.95 3.81 3.78 3.65 3.63 3.87 3.91 3.55 3.73 4.11 3.72 3.13 2.73 2.67 2.53 2.52 2.62 2.49 2.66 3.17 3.88 4.45 4.55 4.28 4.29 4.95 5.88 7.26 7.94 7.26 6.15 5.27 4.67 4.17 3.71 3.08 2.69 2.47 2.25 2.12
3.62 3.39 3.63 3.44 3.41 3.59 3.41 3.37 3.62 3.60 3.24 3.56 3.88 4.01 3.48 3.23 2.71 2.08 2.27 2.47 2.57 2.85 2.89 3.06 3.69 4.22 4.11 4.43 3.87 3.84 5.10 6.49 7.25 6.93 6.01 5.18 4.52 3.96 3.45 3.13 2.75 2.34 2.14
3.79 3.56 3.42 3.27 3.26 3.07 3.26 3.34 3.38 3.52 3.51 3.40 3.46 3.86 3.62 3.26 2.78 2.23 2.08 2.35 2.76 3.10 3.01 3.04 3.03 3.44 3.69 4.12 4.01 3.70 3.65 4.36 5.69 6.85 6.79 5.90 4.81 4.01 3.59 3.57 3.34 2.84 2.47
4.00 3.66 3.40 3.18 3.04 2.83 3.15 2.83 2.99 3.33 3.57 3.26 3.19 3.13 3.14 3.32 3.23 2.82 2.29 2.12 2.38 2.65 2.71 2.59 2.69 3.03 3.34 3.66 3.77 3.71 3.40 3.42 4.17 5.44 6.20 6.10 5.38 4.58 3.99 3.98 4.25 4.02 3.42
3.75 3.34 3.24 3.17 2.98 2.77 2.82 2.82 3.19 3.19 3.16 3.09 3.16 3.10 3.22 3.44 3.23 3.09 2.75 2.58 2.64 2.49 2.36 2.36 2.48 2.70 3.06 3.39 3.65 3.53 3.76 3.54 3.51 3.93 4.63 5.05 5.15 4.90 4.53 4.62 5.25 5.43 5.01
3.36 3.04 2.90 3.06 2.95 2.83 2.87 2.87 2.97 3.02 3.17 3.23 3.23 3.22 3.29 3.29 3.33 3.52 3.15 2.91 2.87 2.51 2.36 2.38 2.51 2.71 2.94 3.12 3.03 3.28 3.50 3.66 3.57 3.54 3.72 3.99 4.31 4.61 4.77 5.01 5.55 5.98 6.16
2.83 2.77 2.77 2.90 2.80 2.86 2.91 3.02 3.06 3.03 3.13 3.16 3.09 3.18 3.28 3.23 3.38 3.54 3.45 3.06 2.80 2.49 2.54 2.50 2.45 2.73 2.85 3.19 3.39 3.32 3.05 3.16 3.13 3.15 3.21 3.26 3.41 3.80 4.20 4.45 5.01 5.60 6.04
2.39 2.51 2.72 2.71 2.61 2.61 2.65 3.12 3.12 3.12 3.22 3.13 2.94 3.30 3.32 3.09 3.31 3.48 3.63 3.71 3.28 2.99 3.05 3.02 2.69 2.67 2.93 3.17 3.46 3.30 2.95 2.97 2.68 2.63 2.66 2.72 2.78 2.92 3.18 3.43 3.74 4.10 4.45
2.32 2.41 2.53 2.78 2.84 2.89 2.94 3.13 3.08 3.10 3.31 3.25 3.19 3.39 3.32 3.11 3.16 3.26 3.54 3.87 3.96 3.66 3.46 3.29 2.95 2.78 2.89 2.98 3.14 2.95 3.02 2.92 2.45 2.18 2.17 2.28 2.27 2.23 2.31 2.49 2.77 3.05 3.21
2.43 2.51 2.55 2.65 2.85 2.97 2.99 3.11 3.07 3.13 3.33 3.35 3.42 3.49 3.34 3.06 3.25 3.25 3.38 3.75 4.11 4.20 3.80 3.20 2.97 2.88 3.02 2.80 2.86 2.62 2.69 2.61 2.25 2.03 1.91 1.95 1.96 1.90 1.92 1.99 2.13 2.41 2.61
2.45 2.55 2.59 2.59 2.58 2.74 2.97 3.19 3.06 3.20 3.32 3.34 3.30 3.22 3.13 3.20 3.40 3.32 3.45 3.61 3.88 4.17 3.82 3.30 3.14 3.16 3.31 3.22 3.03 2.66 2.39 2.29 2.10 2.12 1.94 1.80 1.79 1.82 1.86 1.97 2.05 2.14 2.31
2.52 2.52 2.53 2.52 2.46 2.58 2.87 3.00 3.08 3.38 3.52 3.36 3.26 3.25 3.09 3.24 3.34 3.32 3.40 3.36 3.48 3.86 3.73 3.42 3.32 3.39 3.35 3.22 3.15 2.92 2.50 2.24 2.27 2.37 2.12 1.96 1.90 1.94 1.84 1.89 1.97 2.01 2.13
2.51 2.48 2.50 2.52 2.61 2.80 2.99 3.08 3.17 3.34 3.32 3.21 3.28 3.21 3.06 3.20 3.07 3.14 3.17 3.16 3.16 3.31 3.54 3.39 3.20 3.32 3.24 3.13 3.14 3.00 2.90 2.97 2.65 2.46 2.33 2.15 2.06 2.08 2.01 1.92 1.93 1.98 2.08
2.33 2.37 2.53 2.68 2.80 2.98 3.09 3.13 3.20 3.18 3.13 2.96 2.87 2.80 2.82 2.98 3.07 3.11 3.01 2.98 3.07 3.24 3.37 3.37 3.25 3.32 3.35 3.38 3.34 3.23 3.26 3.18 2.94 2.42 2.33 2.12 2.03 2.01 1.96 1.87 1.85 1.95 2.06
2.27 2.51 2.65 2.70 2.74 2.75 2.80 3.01 3.00 2.90 2.88 2.72 2.58 2.40 2.43 2.78 2.94 2.95 2.71 2.86 2.99 3.05 3.12 3.25 3.26 3.33 3.42 3.69 3.48 3.23 3.17 3.28 3.11 2.82 2.60 2.27 2.16 2.13 2.10 2.05 1.92 1.85 1.84
2.46 2.66 2.64 2.62 2.55 2.14 2.26 2.46 2.48 2.49 2.53 2.49 2.36 2.30 2.26 2.32 2.36 2.41 2.45 2.50 2.60 2.68 2.92 3.26 3.32 3.27 3.23 3.37 3.53 3.49 3.44 3.39 3.26 3.11 3.15 2.96 2.63 2.58 2.47 2.31 2.18 1.87 1.61
2.73 2.82 2.75 2.65 2.47 2.36 2.26 2.11 2.08 2.13 2.27 2.29 2.31 2.38 2.05 1.85 2.07 2.08 2.27 2.28 2.20 2.31 2.48 2.78 2.96 2.95 3.09 3.15 3.51 3.53 3.60 3.61 3.54 3.51 3.57 3.53 3.18 2.88 2.58 2.47 2.43 2.04 1.76
2.96 2.97 2.92 2.79 2.65 2.51 2.42 2.16 2.11 2.03 2.12 2.15 2.18 2.22 2.15 2.05 2.04 2.19 2.32 2.28 2.09 2.04 2.06 2.02 2.22 2.53 2.84 3.19 3.34 3.44 3.61 3.70 3.69 3.55 3.50 3.50 3.26 3.08 2.73 2.48 2.41 2.20 1.86
3.02 2.96 3.02 2.92 2.76 2.71 2.53 2.14 1.97 1.86 2.02 2.07 2.08 2.04 2.00 1.94 2.08 2.03 1.97 1.96 1.97 1.97 1.85 1.86 1.90 2.13 2.40 2.54 2.80 3.10 3.35 3.38 3.25 3.07 3.02 3.15 3.11 3.13 3.07 2.81 2.48 2.42 2.01
3.11 3.12 3.03 2.95 2.83 2.79 2.71 2.14 1.87 1.77 1.96 2.00 2.07 2.03 1.94 1.79 1.85 1.81 1.71 1.83 1.83 1.85 1.98 1.96 1.82 1.79 1.85 2.07 2.24 2.31 2.70 2.97 2.81 2.72 2.51 2.59 2.61 2.88 3.08 2.77 2.49 2.47 2.29